Regional Weather Roundup
Issued by NWS Goodland, KS

Home | Current Version | Previous Version | Graphics & Text | Print | Product List | Glossary On
Versions: 1 2 3 4 5 6 7 8 9 10 11 12 13 14 15 16 17 18 19 20 21 22 23 24 25 26 27 28 29 30 31 32 33 34 35 36 37 38 39 40 41 42 43 44 45 46 47 48 49 50
000
ASUS43 KGLD 271959
RWRGLD

GOODLAND FORECAST AREA HOURLY WEATHER ROUNDUP
NATIONAL WEATHER SERVICE GOODLAND KS
200 PM MDT THU AUG 27 2015

...OFFICIAL OBSERVATIONS...

CITY           SKY/WX    TMP DP  RH WIND       PRES   REMARKS
GOODLAND KS    MOSUNNY   91  50  24 NW16G23   29.95F
HILL CITY KS   CLOUDY    94  58  29 S16G23    29.85F
IMPERIAL NEB   SUNNY     90  56  31 N16       29.90F
MCCOOK NEB     MOSUNNY   92  55  28 W10       29.84F
AKRON CO       MOSUNNY   89  47  23 NW17G26   30.04S
BURLINGTON CO  SUNNY     90  48  23 NW18G29   30.01F
LIMON CO       MOSUNNY   85  50  29 NW13      30.11F
$$

...UNOFFICIAL OBSERVATIONS...

CITY           SKY/WX    TMP DP  RH WIND       PRES   REMARKS
COLBY KS       SUNNY     97  57  26 W13G22    29.91F
GOVE KS          N/A     97  32  10 MISG        N/A
NORTON KS      SUNNY     90  54  29 S13       29.84S
SHARON SPRINGS   N/A     91  56  30 CALM        N/A
TRENTON NEB      N/A     71  32  23 CALM        N/A
KIT CARSON CO    N/A     91  51  25 MISG        N/A
YUMA CO          N/A     90  51  26 NW15G26     N/A
$$



USA.gov is the U.S. government's official web portal to all federal, state and local government web resources and services.